When you browse on this site, cookies collect data to enhance your experience and personalize the content and advertising you see.
Visit our Privacy Policy to learn more. By continuing to use the site, you agree to this use of cookies and data.
  • en France
  • Liste des pays
  • À 7 jours
  • Température de l'eau
  • Carte météo
  • Widgets météo
  • user-avatar
    Se connecter

    Météo par heure à Orléans

    Ce jour, 23 Février, Dimanche

    Heure Température Précipitation Vent Pression Humidité
    00:00 +8°C° 0 mm 5 m/s 762 mmHg 91%
    01:00 +8°C° 0 mm 5 m/s 762 mmHg 92%
    02:00 +8°C° 0 mm 6 m/s 761 mmHg 93%
    03:00 +8°C° 0 mm 6 m/s 761 mmHg 93%
    04:00 +8°C° 0 mm 6 m/s 760 mmHg 93%
    05:00 +9°C° 0 mm 6 m/s 760 mmHg 92%
    06:00 +9°C° 0 mm 6 m/s 760 mmHg 91%
    07:00 +10°C° 0 mm 7 m/s 760 mmHg 89%
    08:00 +10°C° 0 mm 7 m/s 760 mmHg 88%
    09:00 +11°C° 0 mm 8 m/s 760 mmHg 87%
    10:00 +11°C° 0 mm 8 m/s 760 mmHg 86%
    11:00 +11°C° 0 mm 7 m/s 760 mmHg 85%
    12:00 +11°C° 0 mm 7 m/s 760 mmHg 85%
    13:00 +11°C° 0 mm 7 m/s 760 mmHg 85%
    14:00 +11°C° 0 mm 7 m/s 759 mmHg 85%
    15:00 +11°C° 0 mm 6 m/s 759 mmHg 85%
    16:00 +11°C° 0 mm 6 m/s 759 mmHg 86%
    17:00 +11°C° 0 mm 6 m/s 759 mmHg 86%
    18:00 +12°C° 0 mm 5 m/s 760 mmHg 87%
    19:00 +12°C° 0 mm 5 m/s 760 mmHg 88%
    20:00 +12°C° 0 mm 5 m/s 760 mmHg 89%
    21:00 +12°C° 0 mm 5 m/s 760 mmHg 90%
    22:00 +12°C° 0 mm 5 m/s 760 mmHg 91%
    23:00 +11°C° 0 mm 4 m/s 760 mmHg 92%

    Demain, 24 Février, Lundi

    Heure Température Précipitation Vent Pression Humidité
    00:00 +11°C° 0 mm 4 m/s 760 mmHg 92%
    01:00 +11°C° 0 mm 4 m/s 760 mmHg 92%
    02:00 +10°C° 0 mm 5 m/s 759 mmHg 92%
    03:00 +10°C° 0 mm 5 m/s 759 mmHg 93%
    04:00 +10°C° 0 mm 5 m/s 758 mmHg 92%
    05:00 +11°C° 0 mm 4 m/s 758 mmHg 92%
    06:00 +11°C° 0 mm 4 m/s 758 mmHg 92%
    07:00 +10°C° 0 mm 5 m/s 757 mmHg 90%
    08:00 +10°C° 0 mm 5 m/s 757 mmHg 89%
    09:00 +10°C° 0 mm 6 m/s 757 mmHg 87%
    10:00 +10°C° 0 mm 6 m/s 756 mmHg 85%
    11:00 +11°C° 0 mm 6 m/s 756 mmHg 82%
    12:00 +11°C° 0 mm 7 m/s 755 mmHg 79%
    13:00 +11°C° 0 mm 7 m/s 754 mmHg 77%
    14:00 +11°C° 0 mm 7 m/s 753 mmHg 75%
    15:00 +11°C° 0 mm 8 m/s 752 mmHg 73%
    16:00 +11°C° 0 mm 7 m/s 752 mmHg 75%
    17:00 +10°C° 0 mm 7 m/s 752 mmHg 76%
    18:00 +9°C° 0 mm 7 m/s 751 mmHg 77%
    19:00 +9°C° 0 mm 7 m/s 751 mmHg 78%
    20:00 +9°C° 0 mm 7 m/s 751 mmHg 80%
    21:00 +9°C° 0 mm 7 m/s 751 mmHg 81%
    22:00 +9°C° 0.1 mm 7 m/s 750 mmHg 83%
    23:00 +9°C° 0.1 mm 6 m/s 750 mmHg 85%

    Après-demain, 25 Février, Mardi

    Heure Température Précipitation Vent Pression Humidité
    00:00 +9°C° 0.1 mm 6 m/s 750 mmHg 87%
    01:00 +9°C° 0.3 mm 6 m/s 749 mmHg 88%
    02:00 +9°C° 0.3 mm 5 m/s 749 mmHg 88%
    03:00 +9°C° 0.3 mm 5 m/s 748 mmHg 88%
    04:00 +8°C° 0.2 mm 5 m/s 748 mmHg 85%
    05:00 +7°C° 0.2 mm 4 m/s 748 mmHg 82%
    06:00 +6°C° 0.2 mm 4 m/s 748 mmHg 79%
    07:00 +6°C° 0 mm 4 m/s 748 mmHg 75%
    08:00 +7°C° 0 mm 5 m/s 748 mmHg 71%
    09:00 +7°C° 0 mm 5 m/s 749 mmHg 66%
    10:00 +7°C° 0 mm 5 m/s 749 mmHg 64%
    11:00 +7°C° 0 mm 5 m/s 748 mmHg 61%
    12:00 +8°C° 0 mm 6 m/s 748 mmHg 59%
    13:00 +8°C° 0.1 mm 6 m/s 748 mmHg 61%
    14:00 +8°C° 0.1 mm 7 m/s 747 mmHg 63%
    15:00 +8°C° 0.1 mm 7 m/s 747 mmHg 65%
    16:00 +6°C° 0.2 mm 7 m/s 746 mmHg 70%
    17:00 +5°C° 0.2 mm 7 m/s 746 mmHg 75%
    18:00 +5°C° 0.2 mm 6 m/s 746 mmHg 80%
    19:00 +5°C° 0.3 mm 7 m/s 745 mmHg 80%
    20:00 +5°C° 0.3 mm 8 m/s 745 mmHg 79%
    21:00 +5°C° 0.3 mm 8 m/s 744 mmHg 79%
    22:00 +4°C° 0.2 mm 8 m/s 744 mmHg 78%
    23:00 +2°C° 0.2 mm 8 m/s 744 mmHg 78%

    26 Février, Mercredi

    Heure Température Précipitation Vent Pression Humidité
    00:00 +1°C° 0.2 mm 8 m/s 744 mmHg 77%
    01:00 +1°C° 0.3 mm 8 m/s 744 mmHg 79%
    02:00 0°C° 0.3 mm 8 m/s 744 mmHg 80%
    03:00 -1°C° 0.3 mm 9 m/s 744 mmHg 82%
    04:00 -1°C° 0.3 mm 8 m/s 744 mmHg 82%
    05:00 -1°C° 0.3 mm 8 m/s 744 mmHg 81%
    06:00 -2°C° 0.3 mm 7 m/s 744 mmHg 80%
    07:00 -1°C° 0 mm 8 m/s 745 mmHg 76%
    08:00 0°C° 0 mm 9 m/s 746 mmHg 72%
    09:00 +1°C° 0 mm 10 m/s 746 mmHg 68%
    10:00 +2°C° 0.3 mm 10 m/s 747 mmHg 66%
    11:00 +2°C° 0.3 mm 9 m/s 747 mmHg 64%
    12:00 +3°C° 0.3 mm 9 m/s 748 mmHg 62%
    13:00 +5°C° 0.1 mm 9 m/s 748 mmHg 59%
    14:00 +5°C° 0.1 mm 8 m/s 749 mmHg 56%
    15:00 +5°C° 0.1 mm 8 m/s 749 mmHg 53%
    16:00 +4°C° 0 mm 7 m/s 750 mmHg 59%
    17:00 +3°C° 0 mm 5 m/s 750 mmHg 64%
    18:00 +3°C° 0 mm 4 m/s 751 mmHg 70%
    19:00 +1°C° 0 mm 4 m/s 751 mmHg 72%
    20:00 +1°C° 0 mm 4 m/s 752 mmHg 74%
    21:00 +2°C° 0 mm 3 m/s 752 mmHg 77%
    22:00 +1°C° 0 mm 3 m/s 752 mmHg 80%
    23:00 +1°C° 0 mm 3 m/s 752 mmHg 83%

    27 Février, Jeudi

    Heure Température Précipitation Vent Pression Humidité
    00:00 +1°C° 0 mm 3 m/s 752 mmHg 87%
    01:00 +1°C° 0 mm 3 m/s 751 mmHg 87%
    02:00 0°C° 0 mm 4 m/s 751 mmHg 87%
    03:00 0°C° 0 mm 4 m/s 751 mmHg 88%
    04:00 +1°C° 0.1 mm 5 m/s 750 mmHg 88%
    05:00 +1°C° 0.1 mm 6 m/s 749 mmHg 88%
    06:00 0°C° 0.1 mm 7 m/s 748 mmHg 88%
    07:00 +1°C° 1.1 mm 8 m/s 746 mmHg 89%
    08:00 +1°C° 1.1 mm 9 m/s 745 mmHg 90%
    09:00 +2°C° 1.1 mm 10 m/s 744 mmHg 90%
    10:00 +3°C° 1.6 mm 10 m/s 743 mmHg 91%
    11:00 +5°C° 1.6 mm 10 m/s 742 mmHg 91%
    12:00 +7°C° 1.6 mm 9 m/s 742 mmHg 92%
    13:00 +8°C° 0.7 mm 9 m/s 741 mmHg 90%
    14:00 +10°C° 0.7 mm 9 m/s 741 mmHg 88%
    15:00 +11°C° 0.7 mm 8 m/s 741 mmHg 86%
    16:00 +10°C° 0.2 mm 8 m/s 741 mmHg 86%
    17:00 +10°C° 0.2 mm 8 m/s 742 mmHg 87%
    18:00 +10°C° 0.2 mm 7 m/s 742 mmHg 87%
    19:00 +9°C° 0.1 mm 7 m/s 743 mmHg 87%
    20:00 +9°C° 0.1 mm 6 m/s 743 mmHg 87%
    21:00 +8°C° 0.1 mm 5 m/s 744 mmHg 87%
    22:00 +7°C° 0.1 mm 5 m/s 744 mmHg 87%
    23:00 +7°C° 0.1 mm 4 m/s 745 mmHg 87%

    28 Février, Vendredi

    Heure Température Précipitation Vent Pression Humidité
    00:00 +7°C° 0.1 mm 3 m/s 745 mmHg 87%
    01:00 +7°C° 0 mm 3 m/s 745 mmHg 88%
    02:00 +7°C° 0 mm 3 m/s 745 mmHg 90%
    03:00 +7°C° 0 mm 2 m/s 745 mmHg 91%
    04:00 +7°C° 0.8 mm 2 m/s 745 mmHg 93%
    05:00 +7°C° 0.8 mm 2 m/s 745 mmHg 95%
    06:00 +8°C° 0.8 mm 1 m/s 744 mmHg 96%
    07:00 +7°C° 1.4 mm 2 m/s 744 mmHg 96%
    08:00 +8°C° 1.4 mm 2 m/s 744 mmHg 96%
    09:00 +8°C° 1.4 mm 3 m/s 744 mmHg 96%
    10:00 +8°C° 0.5 mm 4 m/s 744 mmHg 92%
    11:00 +9°C° 0.5 mm 6 m/s 743 mmHg 87%
    12:00 +10°C° 0.5 mm 7 m/s 743 mmHg 83%
    13:00 +10°C° 0.2 mm 7 m/s 742 mmHg 84%
    14:00 +10°C° 0.2 mm 7 m/s 742 mmHg 84%
    15:00 +10°C° 0.2 mm 7 m/s 741 mmHg 85%
    16:00 +10°C° 0.8 mm 8 m/s 740 mmHg 86%
    17:00 +10°C° 0.8 mm 9 m/s 739 mmHg 88%
    18:00 +10°C° 0.8 mm 9 m/s 738 mmHg 89%
    19:00 +8°C° 0.7 mm 9 m/s 738 mmHg 87%
    20:00 +8°C° 0.7 mm 9 m/s 738 mmHg 86%
    21:00 +8°C° 0.7 mm 9 m/s 737 mmHg 84%
    22:00 +8°C° 0.7 mm 10 m/s 737 mmHg 84%
    23:00 +8°C° 0.7 mm 10 m/s 736 mmHg 84%
    Voir plus